Dewpoint
65 68 74 72 72 71 70 68 67 65 64 64 64 66 68 66 65 64 63 62 61 60 61 65 66 67 67 66 66 65 63 61 60 61 61 61 62 61 60 62 62 60 64
66 70 74 73 72 71 70 68 66 64 64 63 64 66 66 64 63 61 62 60 60 58 58 62 63 63 65 65 62 61 61 60 60 61 62 63 62 61 61 62 61 59 62
68 72 72 73 73 71 70 68 66 64 63 62 63 66 61 60 58 60 61 59 59 59 58 59 60 61 61 62 63 62 62 60 60 60 62 59 59 62 62 62 62 61 62
70 71 71 74 73 71 69 68 66 64 62 62 62 62 60 59 60 60 59 59 60 59 58 58 58 58 58 59 60 61 61 62 61 62 59 58 57 60 62 62 63 63 62
69 71 70 73 72 71 69 68 66 65 63 61 62 61 60 60 60 60 60 61 61 60 59 59 59 60 60 60 60 59 59 59 63 62 60 58 56 59 61 63 62 62 63
68 69 71 73 73 72 69 68 67 65 63 62 63 63 63 64 64 63 64 64 62 62 60 60 59 59 60 62 63 63 62 63 64 59 58 57 57 59 61 61 61 62 62
67 68 71 73 73 71 70 68 67 66 64 62 62 63 64 64 65 66 66 64 63 62 61 60 61 61 61 61 62 62 62 63 63 60 59 58 56 61 61 62 62 61 60
66 68 71 72 73 72 70 69 68 66 65 63 62 63 64 64 66 66 66 64 64 62 62 62 63 63 63 63 62 62 64 65 63 61 60 59 61 63 61 61 62 63 62
66 68 70 71 71 71 70 69 69 67 66 65 64 64 65 65 65 66 66 65 64 64 63 63 64 63 63 63 64 65 66 66 63 62 61 61 62 64 64 63 63 63 63
67 68 69 69 70 69 69 70 69 68 68 68 66 66 66 65 65 66 68 67 65 64 64 64 64 63 64 65 65 66 66 66 63 61 61 61 64 65 65 65 65 64 64
67 67 68 69 69 69 69 68 69 69 68 67 66 65 64 61 61 62 64 65 66 65 65 64 65 65 67 66 66 66 65 63 62 61 60 62 64 65 66 66 66 65 65
65 65 67 67 67 67 68 67 67 67 66 65 64 62 62 61 59 58 61 64 65 66 66 65 65 65 64 63 63 62 60 59 59 60 60 62 60 62 62 62 63 63 64
64 64 67 66 66 66 66 66 65 65 65 64 63 62 61 61 59 60 59 59 60 60 60 61 60 56 51 52 51 50 51 52 54 55 56 56 57 58 58 58 59 61 62
58 62 64 65 64 65 64 65 65 64 63 63 63 62 61 60 57 58 59 60 61 61 53 48 47 45 43 42 43 43 43 44 45 47 49 54 53 53 55 57 57 60 61
54 59 62 64 64 64 64 64 63 63 63 62 62 62 61 58 59 60 54 48 47 46 44 43 41 39 38 38 38 37 37 37 39 41 42 51 49 51 51 53 55 54 54
41 56 60 62 63 63 64 63 63 63 62 61 60 60 61 61 53 46 46 45 43 42 40 37 36 36 35 35 33 34 32 33 37 34 37 37 45 45 48 50 48 48 49
47 52 59 61 62 62 63 62 62 61 60 57 54 56 55 45 43 44 43 42 39 37 33 32 33 33 32 32 31 32 29 33 36 27 31 34 37 40 44 43 43 44 46
50 56 59 61 62 62 62 61 61 55 47 45 44 44 42 42 41 40 39 38 34 33 32 30 33 32 30 31 30 32 28 32 29 22 26 31 32 30 36 38 39 39 43
49 53 57 61 62 61 57 52 48 44 42 41 40 40 39 37 36 36 36 34 32 31 31 29 29 32 30 29 29 31 27 31 27 18 25 23 29 26 30 31 36 36 38
49 50 51 60 59 50 45 43 41 39 38 37 36 35 33 33 31 33 33 31 30 30 29 27 27 29 32 30 30 28 27 33 25 21 25 20 26 21 28 23 28 28 36
50 50 50 56 50 47 45 42 41 37 34 32 30 29 29 29 29 29 31 30 30 29 27 26 28 28 30 31 29 28 29 28 25 20 25 21 20 21 26 21 26 26 29
52 52 55 50 48 47 45 42 39 35 33 29 29 27 27 27 27 27 29 29 27 26 25 25 26 26 28 31 27 28 23 23 24 16 22 23 19 23 25 18 25 25 26
53 54 52 49 47 45 41 38 35 32 31 29 26 26 25 26 27 27 26 27 26 26 25 24 25 23 24 25 27 20 16 20 23 23 16 22 16 23 19 24 25 23 26
52 53 50 48 45 42 40 37 33 31 30 31 28 24 24 24 24 25 25 24 24 24 22 22 22 23 23 21 26 24 24 23 21 19 22 16 21 17 19 24 24 24 26
50 50 48 46 44 42 39 37 36 34 34 31 25 22 20 22 22 22 22 21 21 23 21 19 19 18 22 20 23 23 22 23 23 23 14 17 17 16 16 19 23 23 23
47 47 46 44 43 41 39 38 35 34 30 26 24 23 22 22 22 19 19 19 18 19 19 20 18 17 17 18 19 19 20 18 18 17 16 15 14 13 17 18 19 23 22
Lifted_Index
-0 -2 -3 -3 -3 -2 -1 1 2 3 3 3 2 1 1 1 2 2 3 4 5 5 4 3 2 2 2 2 2 3 4 5 5 6 6 6 6 5 5 4 4 5 4
-1 -3 -4 -4 -3 -2 -1 1 2 3 3 3 2 1 1 2 3 3 4 4 5 5 5 4 4 3 3 3 3 3 4 5 5 6 6 6 6 6 5 4 4 5 4
-3 -3 -4 -4 -4 -2 -1 0 1 3 3 3 2 2 2 3 4 4 4 5 5 5 6 5 5 5 4 4 4 4 4 5 5 5 6 7 7 6 5 4 4 4 4
-3 -4 -4 -4 -4 -3 -1 -0 1 2 3 3 3 3 3 4 4 5 5 5 5 5 6 6 6 6 5 5 5 5 5 5 5 5 6 7 7 6 5 4 4 4 4
-3 -4 -4 -4 -4 -3 -2 -1 0 1 2 3 3 3 3 3 3 4 4 4 4 4 5 5 5 5 5 5 5 5 5 5 5 5 6 7 7 7 6 4 4 4 4
-3 -3 -4 -4 -4 -3 -2 -1 -0 1 2 2 2 2 1 1 1 2 2 3 3 4 4 4 5 4 4 4 4 4 4 4 4 5 6 7 7 7 6 5 4 4 4
-3 -3 -4 -5 -5 -4 -3 -2 -1 -0 1 2 2 2 1 0 0 0 1 2 3 3 4 4 4 4 4 4 3 3 3 3 3 4 5 6 7 6 6 5 5 5 5
-2 -3 -4 -5 -5 -4 -3 -2 -2 -1 0 1 2 2 1 1 0 -0 1 1 2 3 3 3 3 3 3 3 3 3 3 3 3 4 4 5 5 5 5 4 4 4 4
-3 -3 -4 -5 -5 -4 -4 -3 -2 -2 -1 0 1 1 1 1 1 0 0 1 1 2 2 2 2 2 2 2 2 2 2 2 3 4 4 4 4 4 3 3 3 3 3
-3 -4 -4 -4 -4 -4 -4 -3 -3 -2 -2 -1 0 1 1 2 2 1 0 1 1 1 1 2 2 2 2 1 1 1 2 2 3 4 4 4 4 3 2 2 2 3 3
-4 -4 -4 -4 -4 -4 -4 -4 -3 -3 -2 -1 -0 1 2 2 3 2 2 1 1 1 1 1 1 1 1 2 2 2 2 3 3 4 4 4 4 3 2 2 2 2 2
-4 -4 -4 -4 -4 -3 -3 -3 -3 -3 -2 -1 -0 1 2 3 3 3 2 2 1 1 1 1 1 2 2 3 3 3 4 4 4 5 5 5 5 4 4 3 3 3 2
-4 -4 -4 -3 -3 -3 -3 -3 -3 -2 -2 -1 -0 1 2 2 2 2 2 1 1 1 1 2 2 3 3 4 4 5 5 6 6 6 6 7 6 6 6 5 5 4 3
-2 -3 -3 -3 -3 -3 -3 -3 -2 -2 -2 -1 -0 0 1 1 2 2 2 1 1 1 2 3 3 3 4 5 6 7 8 9 9 8 8 8 8 8 8 7 6 5 4
-0 -1 -2 -3 -3 -3 -3 -3 -3 -2 -2 -1 -1 -0 1 1 1 1 2 2 2 2 3 3 4 5 6 7 9 10 11 11 11 11 10 10 10 10 10 9 8 7 7
1 1 -1 -2 -3 -3 -4 -4 -3 -3 -2 -2 -1 -0 0 1 1 1 2 2 2 3 4 5 6 8 9 10 11 12 13 13 13 13 13 12 12 11 11 11 10 10 10
2 2 0 -1 -3 -3 -4 -4 -4 -3 -2 -1 -1 -0 0 1 1 2 2 2 3 5 6 8 10 11 12 13 13 14 14 15 15 14 14 14 13 13 13 12 12 12 12
3 2 1 -1 -3 -3 -4 -4 -4 -3 -2 -1 -0 0 1 1 2 2 3 4 6 9 10 12 13 13 14 14 15 15 15 15 15 15 15 15 16 16 15 15 15 15 15
3 2 0 -1 -3 -3 -4 -4 -4 -3 -2 -1 -0 0 1 2 3 4 6 8 11 12 13 13 14 15 15 15 16 16 16 15 16 16 16 17 18 18 18 18 18 18 18
2 1 -0 -1 -3 -3 -4 -4 -3 -2 -2 -1 0 1 2 4 6 8 10 12 13 13 13 14 15 15 16 15 15 15 16 16 16 17 17 18 19 19 19 19 19 20 20
3 2 1 -1 -2 -3 -4 -3 -2 -2 -1 -0 1 2 4 7 10 11 12 13 13 13 13 14 15 15 16 15 15 15 15 16 17 17 18 18 19 19 19 19 20 20 20
4 3 2 1 -1 -3 -3 -3 -2 -1 -0 0 1 4 8 10 12 12 12 12 12 13 14 15 15 15 15 16 15 14 13 14 16 17 17 18 18 19 19 19 19 20 20
3 3 3 2 -0 -2 -3 -2 -1 -0 0 1 3 6 10 12 12 12 12 12 12 13 14 15 16 15 15 16 16 16 14 14 15 16 17 17 18 19 19 19 19 20 20
2 2 2 2 -0 -2 -2 -1 -1 -0 1 2 5 9 11 12 12 12 12 12 13 14 15 15 16 16 16 16 17 18 17 16 15 15 15 16 18 18 19 19 19 20 20
1 1 1 1 -1 -1 -1 -1 -1 0 2 4 8 10 11 11 11 12 12 12 13 14 15 16 16 17 17 17 18 18 18 18 17 15 15 15 17 18 19 19 19 20 20
1 1 0 -0 -1 -1 -1 -1 -1 0 3 6 9 10 10 11 11 12 12 12 13 14 15 16 17 18 18 18 18 18 18 17 17 16 15 15 17 18 19 19 19 20 20